Location: *
(2.5500°S, 65.9667°W)
Time: 13:08:49
(UTC+00:00)

Cosmos 2084 - Pass Details

Date: 22 May 2022
Orbit: 506 x 671 km, 62.8° (Epoch: 30 June)

Event Time Altitude Azimuth Distance (km) Brightness Sun altitude
Rises 22:48:26 0° 332° (NNW) 2,879 7.8 -7.4°
Reaches altitude 10° 22:50:40 10° 330° (NNW) 2,001 7.0 -7.9°
Maximum altitude 22:55:13 70° 247° (WSW) 689 4.0 -9.0°
Drops below altitude 10° 22:59:57 10° 162° (SSE) 2,083 5.9 -10.1°
Enters shadow 23:01:59 - 160° (SSE) 2,873 6.6 -10.6°
